Location: Unspecified
(52.4292°N, 19.3359°E)
Time: 09:59:35
(UTC+02:00)

Tiros 1 - Pass Details

Date: 24 May 2024
Orbit: 624 x 657 km, 48.4° (Epoch: 22 June)

Event Time Altitude Azimuth Distance (km) Brightness Sun altitude
Rises 16:21:13 0° 275° (W) 2,983 11.4 37.3°
Reaches altitude 10° 16:23:42 10° 267° (W) 2,070 11.0 37.0°
Maximum altitude 16:28:02 35° 202° (SSW) 1,058 9.1 36.3°
Drops below altitude 10° 16:32:21 10° 137° (SE) 2,056 9.6 35.7°
Sets 16:34:49 0° 129° (SE) 2,961 10.2 35.3°
